Snowfall_Accumulation
0.0 0.0 0.0 0.0 0.0 0.0 0.0 0.0 40.8 0.0 0.0 32.5 39.1 39.6 15.3 1.8 0.1 0.0 2.7 1.7 1.6 3.5 2.9 3.2 5.3 7.1 5.0 0.9 1.5 3.1 3.5 7.7 10.2 1.2 0.4 0.1 0.5 7.7 11.8 45.5 39.5 28.1 23.8 31.5
0.0 0.0 0.0 0.0 0.0 0.0 0.0 16.3 22.9 0.0 0.0 55.1 39.6 12.3 15.7 5.7 4.2 3.1 5.8 3.5 0.9 1.6 2.1 7.1 4.5 4.1 0.0 2.4 5.6 6.9 7.0 10.9 13.7 6.3 1.6 0.1 6.8 9.6 9.7 14.3 31.1 29.6 34.0 29.7
0.0 0.0 0.0 0.0 0.0 0.0 0.0 22.3 53.6 13.5 0.0 7.9 11.3 13.6 15.3 10.0 0.0 2.8 0.5 7.2 0.0 5.4 7.8 2.8 5.9 4.1 2.8 6.5 5.9 2.4 4.2 7.1 8.7 9.7 6.9 6.5 7.3 3.8 7.1 17.8 28.3 19.0 17.8 13.3
0.0 0.0 0.0 0.0 0.0 0.0 0.0 38.5 42.7 0.0 36.4 22.0 10.5 11.0 10.1 7.8 7.9 4.6 0.5 6.5 3.5 4.3 10.6 7.1 4.5 4.6 6.2 9.1 0.4 3.7 12.7 12.4 5.6 4.7 1.9 1.4 3.1 3.6 2.7 11.2 6.8 12.6 7.4 4.4
0.0 0.0 0.0 0.0 0.0 0.0 0.0 75.0 21.1 4.1 7.0 4.0 13.8 9.8 13.6 5.6 5.5 11.0 7.8 8.1 3.5 2.9 6.6 3.5 7.4 4.9 2.8 8.4 0.3 9.1 11.8 14.6 9.4 12.9 3.4 4.8 7.7 5.0 3.2 5.2 4.6 4.3 3.3 2.0
0.0 0.0 0.0 0.0 0.0 0.0 13.9 6.7 0.0 13.7 5.8 4.5 10.8 12.6 9.5 7.6 10.3 3.3 2.1 4.6 6.5 5.5 4.2 0.9 0.6 0.2 0.1 1.0 6.2 7.4 13.5 19.7 18.9 19.1 4.7 6.8 14.2 6.7 4.3 3.6 1.6 1.5 1.4 1.0
0.0 0.0 0.0 0.0 0.0 0.0 0.0 0.0 0.0 19.7 23.0 9.1 6.2 4.3 2.5 5.9 6.9 15.4 3.7 2.5 5.9 0.0 0.1 0.0 0.0 0.0 2.2 0.0 2.6 2.5 13.7 16.0 23.1 23.6 9.5 22.0 6.0 3.2 1.7 0.7 0.6 0.3 0.3 0.5
0.0 0.0 0.0 0.0 0.0 0.0 0.0 0.0 0.0 15.1 22.9 4.5 6.2 4.6 4.7 3.1 3.8 7.4 8.5 4.0 0.3 0.0 1.1 11.7 20.6 18.7 17.9 12.9 6.8 6.6 5.0 9.3 23.3 22.3 15.9 9.6 1.8 0.3 0.6 6.6 4.5 0.4 0.4 0.4
0.0 0.0 0.0 0.0 0.0 0.0 0.0 0.0 0.0 2.0 27.9 9.8 0.7 4.7 1.5 4.2 8.1 8.2 6.1 2.9 0.0 0.0 8.8 22.2 26.6 17.1 10.6 7.9 5.5 3.6 4.6 7.2 19.0 23.7 19.1 10.9 0.2 0.1 0.0 0.2 12.8 0.5 0.2 0.0
0.0 0.0 0.0 0.0 0.0 0.0 0.0 0.0 0.0 0.4 35.6 2.0 0.8 5.7 6.7 0.9 2.7 9.3 2.6 2.4 5.3 0.4 20.6 31.3 23.6 13.4 3.9 5.9 2.8 8.2 12.5 19.6 27.9 19.4 17.6 3.4 0.6 0.2 0.0 12.4 11.8 4.7 1.6 2.9
0.0 0.0 0.0 0.0 0.0 0.0 0.0 0.0 0.0 0.0 35.9 4.7 0.0 0.0 0.2 2.7 2.1 10.0 4.5 14.6 10.4 16.3 19.2 18.8 15.3 16.5 10.6 8.1 3.0 2.9 5.2 18.3 19.0 17.8 23.9 10.3 0.0 1.0 4.8 3.0 5.5 7.3 8.5 10.2
0.0 0.0 0.0 0.0 0.0 0.0 0.0 0.7 0.0 0.0 8.7 9.4 0.0 0.0 0.0 0.0 0.0 1.8 3.8 6.4 8.7 11.8 16.1 13.8 10.5 10.4 7.2 9.0 11.3 1.7 6.8 6.2 12.8 12.9 10.0 2.4 0.8 1.3 1.8 1.3 4.4 6.7 6.8 6.9
0.0 0.0 0.0 0.0 0.0 0.0 0.0 2.1 0.0 0.0 26.2 8.6 0.8 0.2 0.0 0.0 0.0 0.0 9.5 1.8 0.7 3.6 1.2 13.4 12.5 12.1 2.0 8.7 6.2 6.3 5.8 2.5 6.0 5.9 5.6 1.8 1.1 1.1 2.1 3.1 5.3 5.0 4.7 4.6
0.0 0.0 0.0 0.0 0.0 0.0 0.0 0.0 0.0 0.0 4.7 29.4 12.1 0.0 0.0 0.0 0.0 0.0 0.0 0.0 0.0 0.3 1.6 20.2 16.8 14.7 3.0 9.9 7.2 6.9 10.0 5.2 4.9 10.3 13.9 2.1 3.5 5.6 4.5 4.7 4.5 3.9 4.1 3.7
0.0 0.0 0.0 0.0 0.0 0.0 0.0 0.0 0.0 0.0 0.4 18.5 13.5 0.0 0.0 0.0 0.0 0.0 0.0 0.0 1.8 9.4 16.7 19.3 12.4 3.8 11.1 11.6 7.2 5.0 6.4 8.2 10.3 11.3 8.2 9.3 7.0 5.9 4.8 3.5 3.2 2.5 1.5 1.4
0.0 0.0 0.0 0.0 0.0 0.0 0.0 51.9 6.3 0.0 0.0 21.0 21.3 4.2 1.5 0.0 0.0 0.0 0.0 0.0 0.7 8.2 15.8 11.3 3.1 0.0 7.3 22.4 9.7 5.3 7.3 9.9 8.5 8.1 8.0 6.4 5.1 3.9 2.8 2.2 2.2 1.5 0.9 0.6
0.0 0.0 0.0 0.0 0.0 0.0 14.8 14.1 0.4 0.0 0.0 20.3 18.6 10.8 6.8 1.5 0.0 0.0 3.2 2.5 12.8 18.4 20.9 14.0 5.0 1.8 10.5 20.8 10.6 7.1 7.6 8.0 6.4 4.6 3.5 3.1 3.1 2.5 1.4 0.8 0.7 0.5 0.1 0.0
0.0 0.0 0.0 0.0 0.0 0.0 6.0 0.0 0.0 0.0 2.3 7.0 20.1 15.3 19.6 0.0 9.0 13.6 3.7 9.9 11.8 14.2 13.2 11.2 6.1 7.4 12.6 19.6 5.8 4.1 3.6 3.9 2.8 1.9 0.9 0.5 0.2 0.0 0.0 0.0 0.0 0.0 0.0 0.0
0.0 0.0 0.0 0.0 6.8 18.8 0.0 0.0 0.0 0.0 1.4 14.7 6.8 8.7 23.1 6.6 7.9 7.6 7.7 6.5 20.5 5.8 12.5 7.8 7.4 11.5 14.4 9.6 3.5 2.3 1.2 1.8 1.3 0.0 0.0 0.0 0.0 0.0 0.0 0.2 0.2 0.3 0.9 1.6
0.0 2.7 34.1 74.8 11.3 0.0 0.0 0.5 27.1 20.5 8.1 9.8 9.1 2.3 10.7 4.8 9.9 12.5 13.0 8.0 10.4 12.1 6.1 2.3 11.9 6.9 3.2 2.5 1.4 0.8 0.4 1.1 0.5 0.2 0.1 0.1 0.1 0.3 0.3 0.6 0.9 2.4 2.2 1.5
0.1 31.3 36.7 0.0 0.0 1.1 15.7 35.1 24.3 12.1 9.5 3.1 5.3 3.7 10.2 2.1 13.7 11.7 8.6 17.5 7.5 11.9 6.6 5.4 8.7 6.1 6.9 1.3 0.6 0.5 0.6 0.0 0.2 0.4 0.5 0.3 0.9 0.9 1.3 2.9 2.9 3.8 4.0 4.5
0.0 0.0 0.0 2.9 20.2 19.6 21.6 17.2 11.3 5.8 4.8 2.4 3.1 2.9 2.8 2.2 2.1 7.9 8.6 8.5 14.1 19.9 7.7 12.7 9.1 12.1 4.2 0.2 1.2 1.4 0.7 0.9 1.5 1.7 3.9 2.0 2.0 1.7 2.4 2.8 2.6 3.9 3.3 4.7
0.0 2.5 10.7 11.5 15.3 16.0 10.7 10.0 7.5 6.5 3.1 2.4 1.0 4.9 2.7 4.7 2.7 13.4 7.8 14.9 15.2 9.3 16.1 8.8 9.0 6.7 3.5 1.8 1.7 2.2 2.5 3.2 4.3 4.2 3.3 3.9 2.8 2.9 1.8 3.6 6.0 7.7 9.6 10.5
9.5 9.8 10.4 7.6 6.2 7.8 8.0 8.3 8.1 5.4 3.0 3.0 2.9 4.4 8.4 8.9 10.1 14.3 16.6 16.6 11.1 13.1 10.8 8.7 8.3 6.1 6.8 5.4 4.5 2.9 3.1 3.5 2.5 3.4 3.9 6.8 7.0 8.6 9.9 10.2 12.8 13.1 12.7 11.9
11.6 5.9 4.0 7.6 7.9 6.3 6.7 5.9 4.9 3.9 4.5 4.4 5.6 6.6 7.3 9.8 13.1 11.0 9.0 9.5 8.1 6.5 14.4 13.1 10.7 7.8 7.1 6.4 6.3 6.1 6.3 6.5 6.7 7.9 8.5 10.9 11.8 10.1 11.6 11.6 11.4 12.1 11.6 9.4
6.4 6.8 8.2 6.9 7.5 9.2 7.6 5.5 5.9 4.6 5.8 7.7 8.4 12.4 12.9 12.9 9.9 6.7 5.3 4.3 7.4 14.7 11.0 9.4 8.8 8.5 9.2 9.5 8.5 8.7 8.3 7.9 8.0 8.4 8.0 8.1 8.8 9.6 11.2 9.4 8.8 11.4 12.7 11.3
6.3 12.0 12.2 10.2 8.5 13.4 11.7 9.3 8.1 5.2 4.9 11.0 10.1 9.2 7.7 6.2 6.7 6.6 5.6 9.1 10.9 9.2 9.1 8.9 8.6 8.6 9.8 10.2 10.0 9.7 7.2 6.5 6.7 6.7 6.6 6.7 7.2 6.4 5.4 6.0 8.7 8.4 9.1 9.1